Home > Weather > Wipperfürth > Past weeks

Flag for Germany Past Weather in Wipperfürth, North Rhine-Westphalia, Germany — Yesterday and Last 2 Weeks

Now
70 °F

Sunny.


Feels Like: 70 °F
Forecast: 56 / 64 °F
Wind: 10 mph from Southwest

Location: Koeln / Bonn

Current Time: Jun 28, 2016 at 8:40:51 PM

Latest Report: Jun 28, 2016 at 8:20 PM


Visibility: 10 mi

Pressure: 29.92 "Hg

Humidity: 53%

Dew Point: 52 °F

Location of WipperfürthLocation

Past Weather in Wipperfürth — Graph

°F

Wipperfürth Temperature Yesterday

Maximum temperature yesterday: 64 °F (at 12:50 PM)
Minimum temperature yesterday: 52 °F (at 1:20 AM)
Average temperature yesterday: 59 °F

High & Low Weather Summary for the Past Weeks

 TemperatureHumidityPressure
High91 °F (Jun 23, 3:20 PM)100% (Jun 14, 1:50 AM)30.27 "Hg (Jun 14, 1:50 AM)
Low45 °F (Jun 16, 2:50 AM)41% (Jun 23, 5:20 PM)29.47 "Hg (Jun 14, 5:50 PM)
Average62 °F82%29.94 "Hg
* Reported Jun 13 7:20 PM — Jun 28 7:20 PM, Wipperfürth, Weather by CustomWeather, © 2016

Note: Actual official high and low records may vary slightly from our data, if they occured in-between our weather recording intervals... More about our weather records

Advertising

Wipperfürth Weather History for the Previous 24 Hours

Scroll right to see more
 ConditionsComfort  
Time TempWeatherWind HumidityBarometerVisibility
7:20 PM
Tue, Jun 28
72 °FPassing clouds.10 mph44%29.92 "HgN/A
6:50 PM72 °FPartly sunny.7 mph47%29.92 "HgN/A
6:20 PM75 °FSunny.10 mph41%29.95 "Hg10 mi
5:50 PM73 °FPassing clouds.7 mph47%29.95 "HgN/A
5:20 PM73 °FPassing clouds.7 mph47%29.98 "HgN/A
4:50 PM73 °FPassing clouds.7 mph47%29.98 "HgN/A
4:20 PM73 °FPassing clouds.6 mph47%29.98 "HgN/A
3:50 PM73 °FScattered clouds.8 mph47%29.98 "HgN/A
3:20 PM72 °FScattered clouds.5 mph47%29.98 "HgN/A
2:50 PM72 °FScattered clouds.5 mph53%30.01 "HgN/A
2:20 PM72 °FScattered clouds.7 mph50%30.01 "HgN/A
1:50 PM72 °FScattered clouds.7 mph53%30.01 "HgN/A
1:20 PM70 °FScattered clouds.6 mph57%30.04 "HgN/A
12:50 PM70 °FBroken clouds.6 mph60%30.04 "HgN/A
12:20 PM68 °FBroken clouds.6 mph64%30.04 "HgN/A
11:50 AM68 °FBroken clouds.5 mph69%30.07 "HgN/A
11:20 AM66 °FBroken clouds.7 mph73%30.07 "HgN/A
10:50 AM66 °FBroken clouds.7 mph73%30.07 "HgN/A
10:20 AM63 °FBroken clouds.7 mph83%30.07 "HgN/A
9:50 AM63 °FBroken clouds.7 mph83%30.09 "HgN/A
9:20 AM63 °FBroken clouds.6 mph83%30.07 "HgN/A
8:50 AM61 °FBroken clouds.6 mph83%30.09 "HgN/A
8:20 AM59 °FBroken clouds.3 mph94%30.09 "Hg6 mi
7:50 AM59 °FPartly sunny.3 mph94%30.09 "Hg4 mi
7:20 AM57 °FFog.5 mph100%30.09 "Hg3 mi
6:50 AM57 °FFog.3 mph100%30.09 "Hg2 mi
6:20 AM57 °FFog.5 mph100%30.09 "Hg2 mi
5:50 AM57 °FFog.3 mph94%30.09 "Hg2 mi
5:20 AM57 °FCool.5 mph94%30.09 "Hg1 mi
4:50 AM55 °FFog.5 mph100%30.09 "Hg4 mi
4:20 AM55 °FFog.3 mph100%30.09 "HgN/A
3:50 AM57 °FFog.1 mph100%30.09 "HgN/A
3:20 AM57 °FFog.2 mph100%30.09 "HgN/A
2:50 AM57 °FFog.3 mph100%30.09 "HgN/A
2:20 AM57 °FFog.3 mph100%30.12 "HgN/A
1:50 AM57 °FPassing clouds.2 mph100%30.12 "HgN/A
1:20 AM57 °FPassing clouds.1 mph100%30.12 "HgN/A
12:50 AM57 °FFog.1 mph100%30.12 "HgN/A
12:20 AM57 °FPartly cloudy.1 mph100%30.12 "HgN/A
11:50 PM
Mon, Jun 27
59 °FPartly cloudy.2 mph94%30.09 "HgN/A
11:20 PM57 °FFog.2 mph100%30.09 "HgN/A
10:50 PM59 °FFog.2 mph94%30.09 "HgN/A
10:20 PM59 °FBroken clouds.3 mph94%30.09 "HgN/A
9:50 PM61 °FSprinkles. Scattered clouds.7 mph88%30.09 "HgN/A
9:20 PM63 °FPartly sunny.7 mph88%30.07 "HgN/A
8:50 PM64 °FBroken clouds.9 mph83%30.07 "HgN/A
8:20 PM63 °FSprinkles. Broken clouds.3 mph94%30.07 "HgN/A
Weather by CustomWeather, © 2016

See weather overviewHow to use our weather pages